[[[{"header":{"parameterUnit":"kt","parameterCategory":2,"dx":1,"dy":1,"la1":30.253999710083008,"la2":30.299108505249023,"lo1":-89.0895004272461,"lo2":-89.04439544677734,"nx":28,"ny":28,"refTime":"2022-10-11T21:00:00:Z","depth":0,"parameterNumber":1,"parameterNumberName":"U-component_of_WINDS"},"data":[-3.1385,-3.1454,-3.1483,-3.1577,-3.162,-3.169,-3.1726,-3.1775,-3.1823,-3.1914,-3.1973,-3.2013,-3.2076,-3.2157,-3.2224,-3.2242,-3.2268,-3.2271,-3.2291,-3.2246,-3.2242,-3.2238,-3.2222,-3.2277,-3.2277,-3.2332,-3.2333,-3.2333,-3.1353,-3.1394,-3.1452,-3.1527,-3.1578,-3.1593,-3.1657,-3.1699,-3.1763,-3.1823,-3.1882,-3.1966,-3.2038,-3.2101,-3.2177,-3.2214,-3.2226,-3.2232,-3.2229,-3.2239,-3.2193,-3.2175,-3.2221,-3.2221,-3.2221,-3.2221,-3.2221,-3.2221,-3.1301,-3.1341,-3.1403,-3.1466,-3.1513,-3.1564,-3.1609,-3.1655,-3.1715,-3.1793,-3.1819,-3.1894,-3.1962,-3.2068,-3.2113,-3.2174,-3.2174,-3.2191,-3.2195,-3.2198,-3.2197,-3.2113,-3.2189,-3.2189,-3.2189,-3.2189,-3.2189,0,-3.1272,-3.1293,-3.1349,-3.1415,-3.1463,-3.1518,-3.1574,-3.1603,-3.1661,-3.1709,-3.178,-3.1827,-3.1922,-3.1994,-3.2072,-3.2116,-3.2138,-3.2144,-3.2156,-3.2142,-3.2121,-3.2133,-3.2055,-3.2141,-3.2141,-3.2141,-3.214,-3.214,-3.1221,-3.1264,-3.1343,-3.1379,-3.1416,-3.1475,-3.1516,-3.1564,-3.1606,-3.1685,-3.172,-3.1793,-3.1853,-3.1966,-3.2023,-3.2095,-3.2107,-3.2136,-3.2118,-3.2104,-3.2107,-3.2103,-3.2108,-3.2137,-3.2138,-3.2138,-3.2138,0,-3.1191,-3.1236,-3.1313,-3.1387,-3.1407,-3.1452,-3.1517,-3.1561,-3.1601,-3.1668,-3.1687,-3.1751,-3.1822,-3.1874,-3.1967,-3.1992,-3.2073,-3.2082,-3.2049,-3.2054,-3.2085,-3.2081,-3.2177,-3.2193,-3.2137,-3.2138,-3.2138,0,-3.1165,-3.1221,-3.1286,-3.1328,-3.1392,-3.1437,-3.1501,-3.1541,-3.1597,-3.165,-3.1682,-3.1732,-3.179,-3.1849,-3.1886,-3.1961,-3.1979,-3.2003,-3.2012,-3.1999,-3.1996,-3.2022,-3.2019,-3.2031,-3.2031,-3.203,-3.203,0,-3.1111,-3.121,-3.1279,-3.1309,-3.1394,-3.1426,-3.1464,-3.1526,-3.1567,-3.1629,-3.1656,-3.1726,-3.1765,-3.182,-3.1866,-3.1852,-3.1959,-3.1949,-3.1984,-3.1983,-3.2003,-3.2001,-3.2075,-3.2029,-3.2029,-3.2029,-3.2028,0,-3.1096,-3.1153,-3.1245,-3.1316,-3.134,-3.1387,-3.1455,-3.1507,-3.1571,-3.1596,-3.1646,-3.1672,-3.1741,-3.1727,-3.1824,-3.1791,-3.1829,-3.1858,-3.1861,-3.1869,-3.1852,-3.1885,-3.1951,-3.1959,-3.1879,-3.1878,-3.1877,0,-3.1022,-3.1126,-3.1162,-3.125,-3.1305,-3.1334,-3.1387,-3.1441,-3.1479,-3.1534,-3.1577,-3.164,-3.164,-3.1667,-3.1708,-3.1756,-3.1798,-3.1752,-3.1835,-3.1837,-3.1814,-3.1876,-3.1871,-3.1931,-3.1862,-3.1863,-3.1865,0,-3.0968,-3.1066,-3.1079,-3.1115,-3.1191,-3.1237,-3.1298,-3.1368,-3.1402,-3.146,-3.1513,-3.1604,-3.1608,-3.1651,-3.168,-3.172,-3.1771,-3.1719,-3.1722,-3.1727,-3.1858,-3.1854,-3.1864,-3.1782,-3.1784,-3.1786,-3.1853,0,-3.0936,-3.0993,-3.1029,-3.1106,-3.1149,-3.1206,-3.1255,-3.1295,-3.1316,-3.1353,-3.1433,-3.1492,-3.1565,-3.159,-3.1612,-3.1686,-3.1682,-3.1685,-3.1674,-3.1714,-3.1738,-3.1747,-3.1635,-3.1635,-3.1635,-3.1635,0,0,-3.0853,-3.0934,-3.0971,-3.1029,-3.1067,-3.1095,-3.1151,-3.1193,-3.1276,-3.1303,-3.1298,-3.1432,-3.1479,-3.1571,-3.1588,-3.1618,-3.1636,-3.1619,-3.1695,-3.1701,-3.1707,-3.1731,-3.174,-3.1635,-3.1635,-3.1635,-3.1635,0,-3.085,-3.0891,-3.0945,-3.0989,-3.1054,-3.1089,-3.1102,-3.1172,-3.1198,-3.1275,-3.1298,-3.1352,-3.1457,-3.1505,-3.1543,-3.161,-3.1625,-3.1629,-3.1647,-3.1693,-3.1699,-3.1705,-3.173,-3.1738,-3.1636,-3.1636,-3.1636,0,-3.0805,-3.0855,-3.0885,-3.0971,-3.1014,-3.107,-3.107,-3.1128,-3.1171,-3.12,-3.1275,-3.1314,-3.1382,-3.1461,-3.1499,-3.1495,-3.1612,-3.1584,-3.1585,-3.159,-3.1637,-3.1645,-3.1651,-3.1562,-3.1561,-3.1561,0,0,-3.0796,-3.0848,-3.0915,-3.0973,-3.0999,-3.1051,-3.1086,-3.1109,-3.1167,-3.119,-3.1239,-3.1297,-3.1359,-3.1399,-3.1459,-3.1539,-3.1558,-3.1572,-3.1576,-3.1579,-3.1585,-3.1632,-3.164,-3.1559,-3.1559,-3.1559,0,0,-3.0793,-3.0871,-3.088,-3.0953,-3.1006,-3.1077,-3.1112,-3.1127,-3.1185,-3.1184,-3.123,-3.1247,-3.1322,-3.136,-3.133,-3.1457,-3.1445,-3.1453,-3.1428,-3.1433,-3.1437,-3.1426,-3.1339,0,0,0,0,0,-3.0812,-3.0861,-3.0869,-3.0888,-3.0997,-3.1072,-3.1087,-3.1123,-3.1114,-3.1142,-3.1186,-3.1199,-3.1354,-3.1328,-3.1348,-3.1381,-3.1536,-3.154,-3.1544,-3.1531,-3.1536,-3.154,0,0,0,0,0,0,-3.082,-3.0843,-3.0868,-3.094,-3.0965,-3.1071,-3.1063,-3.1075,-3.1112,-3.1113,-3.119,-3.1201,-3.1236,-3.132,-3.1338,-3.1368,-3.1333,-3.1537,-3.1541,-3.1544,-3.1532,-3.1536,-3.154,0,0,0,0,0,-3.0826,-3.0845,-3.1009,-3.094,-3.0961,-3.1022,-3.1062,-3.1071,-3.1101,-3.1169,-3.118,-3.1125,-3.1236,-3.1253,-3.1331,-3.1359,-3.1321,-3.1327,-3.1539,-3.1542,-3.1545,-3.1534,0,0,0,0,0,0,-3.0831,-3.0856,-3.1014,-3.1022,-3.0923,-3.1017,-3.1032,-3.1068,-3.1155,-3.1167,-3.1106,-3.1106,-3.1236,-3.125,-3.1263,-3.1354,-3.1311,-3.1318,-3.1322,-3.1542,-3.1544,-3.1546,0,0,0,0,0,0,-3.0846,-3.0862,-3.1018,-3.0995,-3.1,-3.1012,-3.1026,-3.1097,-3.1156,-3.1087,-3.109,-3.1105,-3.1217,-3.1247,-3.1258,-3.1368,-3.1304,-3.131,-3.1314,-3.1317,-3.1543,-3.1545,0,0,0,0,0,0,-3.0854,-3.0868,-3.0993,-3.0997,-3.1002,-3.1096,-3.1076,-3.1186,-3.1132,-3.1083,-3.1128,-3.1127,-3.1215,-3.1226,-3.1254,-3.136,-3.1366,-3.1304,-3.1308,-3.1311,-3.1313,0,0,0,0,0,0,0,-3.086,-3.0756,-3.0966,-3.0999,-3.1004,-3.1097,-3.1099,-3.1102,-3.1132,-3.113,-3.1129,-3.1127,-3.1268,-3.1275,-3.1282,-3.1353,0,0,-3.1303,-3.1306,0,0,0,0,0,0,0,0,-3.0751,-3.0755,-3.0966,-3.0967,-3.0969,-3.1098,-3.1099,-3.1101,-3.1131,-3.113,-3.1129,-3.1128,-3.127,-3.1275,-3.1281,0,0,0,0,0,0,0,0,0,0,0,0,0,0,0,-3.0966,-3.0967,0,-3.1098,-3.1099,-3.1101,-3.1131,-3.113,-3.1129,-3.1128,-3.1272,-3.1276,-3.1281,0,0,0,0,0,0,0,0,0,0,0,0,0,0,0,0,0,0,0,0,0,0,0,0,0,0,0,0,0,0,0,0,0,0,0,0,0,0,0,0,0,0,0,0,0,0,0,0,0,0,0,0,0,0,0,0,0,0,0,0,0,0,0,0,0,0,0,0,0]}],[{"header":{"parameterUnit":"kt","parameterCategory":2,"dx":1,"dy":1,"la1":30.253999710083008,"la2":30.299108505249023,"lo1":-89.0895004272461,"lo2":-89.04439544677734,"nx":28,"ny":28,"refTime":"2022-10-11T21:00:00:Z","depth":0,"parameterNumber":2,"parameterNumberName":"V-component_of_WINDS"},"data":[4.3581,4.3587,4.3592,4.3603,4.3609,4.3619,4.3624,4.3631,4.3638,4.3653,4.3662,4.3668,4.3677,4.3692,4.3704,4.3706,4.3713,4.3717,4.3719,4.3698,4.3695,4.3693,4.3692,4.3717,4.3717,4.3742,4.3742,4.3742,4.3581,4.3586,4.3591,4.3598,4.3604,4.3605,4.3612,4.3617,4.3625,4.3632,4.3639,4.3652,4.3662,4.3669,4.3681,4.3689,4.369,4.3692,4.3693,4.3695,4.3672,4.3671,4.3692,4.3692,4.3692,4.3692,4.3692,4.3692,4.3583,4.3585,4.3589,4.3594,4.3598,4.3603,4.3607,4.361,4.3615,4.3623,4.3624,4.3633,4.3641,4.3652,4.3656,4.3666,4.3664,4.3667,4.3668,4.367,4.3674,4.365,4.3667,4.3667,4.3667,4.3667,4.3667,0,4.3585,4.3587,4.3588,4.3592,4.3595,4.3597,4.36,4.3602,4.3604,4.3607,4.3614,4.3617,4.3626,4.3634,4.3642,4.3644,4.3644,4.3642,4.3645,4.3647,4.3652,4.3656,4.3623,4.3641,4.3641,4.364,4.364,4.364,4.359,4.3588,4.359,4.3592,4.3592,4.3593,4.3594,4.3594,4.3596,4.3599,4.3602,4.3607,4.3611,4.362,4.3622,4.3629,4.3628,4.3637,4.3629,4.3634,4.3635,4.3636,4.3639,4.3638,4.3638,4.3638,4.3639,0,4.3594,4.3593,4.359,4.359,4.359,4.359,4.3591,4.3592,4.3592,4.3594,4.3595,4.3595,4.36,4.3599,4.3603,4.3603,4.3614,4.3611,4.3615,4.3616,4.3627,4.3628,4.3651,4.3657,4.3626,4.3626,4.3626,0,4.3599,4.3595,4.3594,4.3592,4.3592,4.3588,4.3588,4.3587,4.3587,4.3588,4.3585,4.3587,4.3583,4.3587,4.3586,4.3593,4.3592,4.3594,4.3594,4.3595,4.3596,4.3597,4.3597,4.3587,4.3587,4.3587,4.3587,0,4.3607,4.3597,4.3594,4.3592,4.3587,4.3586,4.3585,4.3582,4.3581,4.358,4.3581,4.358,4.3579,4.3581,4.3579,4.3575,4.3586,4.3579,4.3588,4.3589,4.359,4.359,4.3611,4.3587,4.3587,4.3587,4.3587,0,4.3608,4.3604,4.3596,4.3594,4.3591,4.3587,4.3585,4.358,4.3578,4.3576,4.3574,4.357,4.357,4.3566,4.3569,4.3565,4.3567,4.3566,4.3567,4.3567,4.3562,4.3579,4.3595,4.3599,4.3571,4.357,4.357,0,4.3622,4.361,4.3604,4.3596,4.359,4.3587,4.3583,4.3578,4.3574,4.3571,4.3567,4.3562,4.3556,4.3554,4.3556,4.3552,4.3558,4.3551,4.3553,4.3554,4.3559,4.3573,4.3577,4.3592,4.3568,4.3568,4.3568,0,4.363,4.3617,4.3615,4.3613,4.3601,4.3593,4.3588,4.358,4.3579,4.3569,4.3567,4.3556,4.3554,4.3548,4.3541,4.3543,4.3554,4.3539,4.3539,4.3547,4.3564,4.357,4.3572,4.3551,4.3551,4.3551,4.3567,0,4.3643,4.3632,4.3625,4.3611,4.3604,4.3594,4.3586,4.358,4.3576,4.3569,4.3563,4.3551,4.3541,4.3539,4.3532,4.3534,4.3533,4.3528,4.3522,4.353,4.3536,4.3537,4.3516,4.3516,4.3516,4.3516,0,0,4.3658,4.364,4.3629,4.3619,4.3612,4.3603,4.3595,4.3587,4.3568,4.3566,4.3563,4.3544,4.3533,4.3526,4.3527,4.3521,4.3522,4.3516,4.3525,4.3527,4.3528,4.3534,4.3535,4.3515,4.3515,4.3515,4.3515,0,4.366,4.3645,4.3634,4.3625,4.361,4.3601,4.3599,4.3582,4.3576,4.3564,4.3557,4.3551,4.353,4.3523,4.3517,4.3518,4.3512,4.3515,4.3521,4.3524,4.3525,4.3526,4.3532,4.3534,4.3514,4.3515,4.3515,0,4.3669,4.3655,4.3646,4.3623,4.3612,4.3602,4.3595,4.3582,4.3576,4.3562,4.355,4.3541,4.3528,4.3518,4.3512,4.3509,4.3505,4.35,4.3501,4.35,4.3502,4.3504,4.3506,4.3487,4.3487,4.3487,0,0,4.3672,4.3658,4.3639,4.3622,4.3616,4.3601,4.3592,4.3584,4.357,4.3564,4.3551,4.3539,4.3529,4.3521,4.351,4.3499,4.3498,4.3497,4.3498,4.35,4.3499,4.3502,4.3503,4.3487,4.3487,4.3487,0,0,4.3672,4.3649,4.3644,4.3623,4.361,4.3589,4.3581,4.3575,4.3562,4.3562,4.3547,4.3542,4.3532,4.3522,4.3522,4.3508,4.3502,4.3502,4.3514,4.3516,4.3517,4.352,4.351,0,0,0,0,0,4.3666,4.3652,4.3648,4.3643,4.361,4.3592,4.3588,4.3575,4.3573,4.3568,4.3557,4.3548,4.352,4.352,4.3515,4.3515,4.3485,4.3485,4.3485,4.3499,4.35,4.3502,0,0,0,0,0,0,4.3663,4.3656,4.3649,4.3627,4.362,4.3592,4.3587,4.3583,4.3574,4.3572,4.3551,4.3548,4.3536,4.3521,4.3517,4.3517,4.3512,4.3485,4.3485,4.3485,4.3499,4.3501,4.3502,0,0,0,0,0,4.3661,4.3656,4.3606,4.3627,4.3621,4.3601,4.3588,4.3584,4.3576,4.3556,4.3553,4.3567,4.3536,4.3532,4.3519,4.352,4.3514,4.3513,4.3485,4.3485,4.3485,4.35,0,0,0,0,0,0,4.366,4.3653,4.3604,4.3602,4.363,4.3602,4.3597,4.3585,4.356,4.3557,4.3571,4.3571,4.3537,4.3533,4.353,4.3521,4.3517,4.3515,4.3514,4.3485,4.3485,4.3485,0,0,0,0,0,0,4.3656,4.3651,4.3603,4.3607,4.3604,4.3603,4.3599,4.3583,4.356,4.3577,4.3576,4.3571,4.3542,4.3534,4.3531,4.3508,4.3518,4.3517,4.3516,4.3515,4.3485,4.3485,0,0,0,0,0,0,4.3654,4.365,4.3607,4.3605,4.3604,4.3576,4.3589,4.3557,4.3563,4.3578,4.3563,4.3563,4.3543,4.354,4.3532,4.351,4.3508,4.3518,4.3517,4.3517,4.3516,0,0,0,0,0,0,0,4.3652,4.3683,4.3618,4.3605,4.3603,4.358,4.358,4.3579,4.3563,4.3563,4.3563,4.3563,4.3526,4.3525,4.3523,4.3512,0,0,4.3518,4.3518,0,0,0,0,0,0,0,0,4.3685,4.3683,4.3618,4.3618,4.3617,4.358,4.358,4.3579,4.3563,4.3563,4.3563,4.3563,4.3526,4.3525,4.3523,0,0,0,0,0,0,0,0,0,0,0,0,0,0,0,4.3618,4.3618,0,4.358,4.358,4.3579,4.3563,4.3563,4.3563,4.3563,4.3526,4.3525,4.3524,0,0,0,0,0,0,0,0,0,0,0,0,0,0,0,0,0,0,0,0,0,0,0,0,0,0,0,0,0,0,0,0,0,0,0,0,0,0,0,0,0,0,0,0,0,0,0,0,0,0,0,0,0,0,0,0,0,0,0,0,0,0,0,0,0,0,0,0,0]}]]]